Time,TemperatureF,DewpointF,PressureIn,WindDirection,WindDirectionDegrees,WindSpeedMPH,WindSpeedGustMPH,Humidity,HourlyPrecipIn,Conditions,Clouds,dailyrainin,SoftwareType,DateUTC
2013-07-11 00:01:00,75.0,49.0,-100.00,ESE,116,1.0,2.0,39,0.00,,,0.00,,2013-07-11 06:01:00,
2013-07-11 00:11:00,73.0,51.0,-100.00,SE,126,2.0,3.0,45,0.00,,,0.00,,2013-07-11 06:11:00,
2013-07-11 00:22:00,73.0,51.0,-100.00,SE,126,2.0,3.0,45,0.00,,,0.00,,2013-07-11 06:22:00,
2013-07-11 00:32:00,71.0,51.0,-100.00,West,278,1.0,2.0,50,0.00,,,0.00,,2013-07-11 06:32:00,
2013-07-11 00:43:00,72.0,51.0,-100.00,ESE,104,1.0,2.0,48,0.00,,,0.00,,2013-07-11 06:43:00,
2013-07-11 00:52:00,72.0,51.0,-100.00,ESE,104,1.0,2.0,48,0.00,,,0.00,,2013-07-11 06:52:00,
2013-07-11 01:01:00,70.0,52.0,-100.00,South,186,0.0,1.0,52,0.00,,,0.00,,2013-07-11 07:01:00,
2013-07-11 01:12:00,69.0,50.0,-100.00,SSE,147,1.0,2.0,51,0.00,,,0.00,,2013-07-11 07:12:00,
2013-07-11 01:22:00,69.0,50.0,-100.00,SSE,147,1.0,2.0,51,0.00,,,0.00,,2013-07-11 07:22:00,
2013-07-11 01:32:00,68.0,51.0,-100.00,NW,315,0.0,0.0,54,0.00,,,0.00,,2013-07-11 07:32:00,
2013-07-11 01:45:00,67.0,52.0,-100.00,NW,306,0.0,2.0,59,0.00,,,0.00,,2013-07-11 07:45:00,
2013-07-11 01:53:00,67.0,52.0,-100.00,NW,306,0.0,2.0,59,0.00,,,0.00,,2013-07-11 07:53:00,
2013-07-11 02:02:00,67.0,52.0,-100.00,SSW,193,0.0,1.0,58,0.00,,,0.00,,2013-07-11 08:02:00,
2013-07-11 02:11:00,66.0,51.0,-100.00,NW,315,0.0,1.0,58,0.00,,,0.00,,2013-07-11 08:11:00,
2013-07-11 02:22:00,66.0,51.0,-100.00,NW,315,0.0,1.0,58,0.00,,,0.00,,2013-07-11 08:22:00,
2013-07-11 02:33:00,67.0,51.0,-100.00,SSE,154,1.0,2.0,57,0.00,,,0.00,,2013-07-11 08:33:00,
2013-07-11 02:43:00,65.0,52.0,-100.00,ENE,58,0.0,1.0,62,0.00,,,0.00,,2013-07-11 08:43:00,
2013-07-11 02:53:00,65.0,52.0,-100.00,ENE,58,0.0,1.0,62,0.00,,,0.00,,2013-07-11 08:53:00,
2013-07-11 03:02:00,65.0,52.0,-100.00,WNW,291,1.0,2.0,62,0.00,,,0.00,,2013-07-11 09:02:00,
2013-07-11 03:12:00,65.0,51.0,-100.00,NNE,13,0.0,1.0,62,0.00,,,0.00,,2013-07-11 09:12:00,
2013-07-11 03:21:00,65.0,51.0,-100.00,NNE,13,0.0,1.0,62,0.00,,,0.00,,2013-07-11 09:21:00,
2013-07-11 03:33:00,64.0,51.0,-100.00,East,85,1.0,2.0,62,0.00,,,0.00,,2013-07-11 09:33:00,
2013-07-11 03:43:00,64.0,51.0,-100.00,West,277,1.0,2.0,63,0.00,,,0.00,,2013-07-11 09:43:00,
2013-07-11 03:53:00,64.0,51.0,-100.00,West,277,1.0,2.0,63,0.00,,,0.00,,2013-07-11 09:53:00,
2013-07-11 04:01:00,63.0,51.0,-100.00,WSW,253,0.0,1.0,64,0.00,,,0.00,,2013-07-11 10:01:00,
2013-07-11 04:11:00,63.0,51.0,-100.00,WSW,253,0.0,1.0,64,0.00,,,0.00,,2013-07-11 10:11:00,
2013-07-11 04:33:00,63.0,51.0,-100.00,WNW,296,0.0,1.0,66,0.00,,,0.00,,2013-07-11 10:33:00,
2013-07-11 04:43:00,62.0,51.0,-100.00,SSE,164,1.0,2.0,66,0.00,,,0.00,,2013-07-11 10:43:00,
2013-07-11 04:52:00,62.0,51.0,-100.00,SSE,164,1.0,2.0,66,0.00,,,0.00,,2013-07-11 10:52:00,
2013-07-11 05:01:00,62.0,51.0,-100.00,South,181,0.0,1.0,66,0.00,,,0.00,,2013-07-11 11:01:00,
2013-07-11 05:12:00,62.0,51.0,-100.00,SSE,162,1.0,2.0,67,0.00,,,0.00,,2013-07-11 11:12:00,
2013-07-11 05:32:00,62.0,51.0,-100.00,West,267,0.0,1.0,66,0.00,,,0.00,,2013-07-11 11:32:00,
2013-07-11 05:43:00,62.0,51.0,-100.00,WSW,241,0.0,1.0,67,0.00,,,0.00,,2013-07-11 11:43:00,
2013-07-11 05:53:00,62.0,51.0,-100.00,WSW,241,0.0,1.0,67,0.00,,,0.00,,2013-07-11 11:53:00,
2013-07-11 06:01:00,62.0,50.0,-100.00,SSE,161,1.0,2.0,66,0.00,,,0.00,,2013-07-11 12:01:00,
2013-07-11 06:12:00,61.0,50.0,-100.00,WSW,243,0.0,2.0,68,0.00,,,0.00,,2013-07-11 12:12:00,
2013-07-11 06:33:00,62.0,50.0,-100.00,South,191,1.0,2.0,66,0.00,,,0.00,,2013-07-11 12:33:00,
2013-07-11 06:43:00,61.0,50.0,-100.00,SSE,168,2.0,3.0,66,0.00,,,0.00,,2013-07-11 12:43:00,
2013-07-11 06:56:00,61.0,50.0,-100.00,SSE,168,2.0,3.0,66,0.00,,,0.00,,2013-07-11 12:56:00,
2013-07-11 07:01:00,62.0,50.0,-100.00,SSE,151,1.0,3.0,66,0.00,,,0.00,,2013-07-11 13:01:00,
2013-07-11 07:11:00,62.0,50.0,-100.00,SSE,151,1.0,3.0,66,0.00,,,0.00,,2013-07-11 13:11:00,
2013-07-11 07:22:00,62.0,50.0,-100.00,South,174,0.0,2.0,63,0.00,,,0.00,,2013-07-11 13:22:00,
2013-07-11 07:33:00,62.0,50.0,-100.00,NW,320,3.0,5.0,64,0.00,,,0.00,,2013-07-11 13:33:00,
2013-07-11 07:44:00,62.0,51.0,-100.00,WSW,243,0.0,1.0,66,0.00,,,0.00,,2013-07-11 13:44:00,
2013-07-11 07:54:00,62.0,51.0,-100.00,WSW,243,0.0,1.0,66,0.00,,,0.00,,2013-07-11 13:54:00,
2013-07-11 08:02:00,61.0,51.0,-100.00,WNW,298,0.0,1.0,68,0.00,,,0.00,,2013-07-11 14:02:00,
2013-07-11 08:12:00,61.0,51.0,-100.00,WNW,298,0.0,1.0,68,0.00,,,0.00,,2013-07-11 14:12:00,
2013-07-11 08:23:00,61.0,51.0,-100.00,NW,308,1.0,2.0,68,0.00,,,0.00,,2013-07-11 14:23:00,
2013-07-11 08:44:00,62.0,52.0,-100.00,NW,305,0.0,0.0,69,0.00,,,0.00,,2013-07-11 14:44:00,
2013-07-11 09:02:00,63.0,53.0,-100.00,WNW,287,0.0,1.0,68,0.00,,,0.00,,2013-07-11 15:02:00,
2013-07-11 09:12:00,65.0,53.0,-100.00,North,353,2.0,3.0,65,0.00,,,0.00,,2013-07-11 15:12:00,
2013-07-11 09:23:00,65.0,53.0,-100.00,North,353,2.0,3.0,65,0.00,,,0.00,,2013-07-11 15:23:00,
2013-07-11 09:34:00,65.0,53.0,-100.00,West,281,1.0,2.0,66,0.00,,,0.00,,2013-07-11 15:34:00,
2013-07-11 09:44:00,65.0,54.0,-100.00,WNW,302,1.0,2.0,68,0.00,,,0.00,,2013-07-11 15:44:00,
2013-07-11 09:56:00,65.0,54.0,-100.00,WNW,302,1.0,2.0,68,0.00,,,0.00,,2013-07-11 15:56:00,
2013-07-11 10:02:00,66.0,51.0,-100.00,North,10,2.0,4.0,59,0.00,,,0.00,,2013-07-11 16:02:00,
2013-07-11 10:12:00,67.0,56.0,-100.00,WSW,257,0.0,1.0,68,0.00,,,0.00,,2013-07-11 16:12:00,
2013-07-11 10:22:00,67.0,56.0,-100.00,WSW,257,0.0,1.0,68,0.00,,,0.00,,2013-07-11 16:22:00,
2013-07-11 11:02:00,71.0,53.0,-100.00,North,359,2.0,5.0,52,0.00,,,0.00,,2013-07-11 17:02:00,
2013-07-11 11:13:00,72.0,53.0,-100.00,North,357,1.0,2.0,51,0.00,,,0.00,,2013-07-11 17:13:00,
2013-07-11 11:23:00,72.0,53.0,-100.00,North,357,1.0,2.0,51,0.00,,,0.00,,2013-07-11 17:23:00,
2013-07-11 11:34:00,74.0,54.0,-100.00,NW,323,0.0,0.0,50,0.00,,,0.00,,2013-07-11 17:34:00,
2013-07-11 12:03:00,75.0,53.0,-100.00,NNE,18,0.0,1.0,47,0.00,,,0.00,,2013-07-11 18:03:00,
2013-07-11 12:13:00,75.0,51.0,-100.00,NW,311,2.0,2.0,42,0.00,,,0.00,,2013-07-11 18:13:00,
2013-07-11 12:22:00,75.0,51.0,-100.00,NW,311,2.0,2.0,42,0.00,,,0.00,,2013-07-11 18:22:00,
2013-07-11 12:45:00,76.0,53.0,-100.00,WNW,301,0.0,2.0,44,0.00,,,0.00,,2013-07-11 18:45:00,
2013-07-11 13:02:00,78.0,45.0,-100.00,South,171,5.0,8.0,31,0.00,,,0.00,,2013-07-11 19:02:00,
2013-07-11 13:22:00,78.0,45.0,-100.00,SW,215,2.0,7.0,31,0.00,,,0.00,,2013-07-11 19:22:00,
2013-07-11 13:34:00,80.0,47.0,-100.00,South,179,3.0,6.0,32,0.00,,,0.00,,2013-07-11 19:34:00,
2013-07-11 13:57:00,80.0,45.0,-100.00,South,171,6.0,10.0,30,0.00,,,0.00,,2013-07-11 19:57:00,
2013-07-11 14:12:00,81.0,47.0,-100.00,SSW,193,6.0,11.0,31,0.00,,,0.00,,2013-07-11 20:12:00,
2013-07-11 14:23:00,81.0,47.0,-100.00,SSW,193,6.0,11.0,31,0.00,,,0.00,,2013-07-11 20:23:00,
2013-07-11 14:34:00,81.0,42.0,-100.00,WSW,248,3.0,8.0,25,0.00,,,0.00,,2013-07-11 20:34:00,
2013-07-11 14:54:00,82.0,43.0,-100.00,South,185,2.0,9.0,25,0.00,,,0.00,,2013-07-11 20:54:00,
2013-07-11 15:02:00,82.0,42.0,-100.00,SSE,157,5.0,11.0,24,0.00,,,0.00,,2013-07-11 21:02:00,
2013-07-11 15:33:00,82.0,43.0,-100.00,SSE,168,2.0,5.0,25,0.00,,,0.00,,2013-07-11 21:33:00,
2013-07-11 15:44:00,82.0,43.0,-100.00,SSE,168,2.0,5.0,25,0.00,,,0.00,,2013-07-11 21:44:00,
2013-07-11 15:57:00,82.0,43.0,-100.00,SSE,168,2.0,5.0,25,0.00,,,0.00,,2013-07-11 21:57:00,
2013-07-11 16:22:00,82.0,47.0,-100.00,SW,224,1.0,6.0,30,0.00,,,0.00,,2013-07-11 22:22:00,
2013-07-11 16:32:00,82.0,47.0,-100.00,SW,224,1.0,6.0,30,0.00,,,0.00,,2013-07-11 22:32:00,
2013-07-11 16:44:00,83.0,44.0,-100.00,South,182,5.0,9.0,25,0.00,,,0.00,,2013-07-11 22:44:00,
2013-07-11 16:54:00,83.0,44.0,-100.00,South,182,5.0,9.0,25,0.00,,,0.00,,2013-07-11 22:54:00,
2013-07-11 17:02:00,80.0,45.0,-100.00,WNW,295,7.0,14.0,30,0.00,,,0.00,,2013-07-11 23:02:00,
2013-07-11 17:11:00,80.0,45.0,-100.00,WNW,295,7.0,14.0,30,0.00,,,0.00,,2013-07-11 23:11:00,
2013-07-11 17:23:00,74.0,45.0,-100.00,WNW,291,6.0,9.0,35,0.00,,,0.00,,2013-07-11 23:23:00,
2013-07-11 17:33:00,72.0,49.0,-100.00,NW,311,8.0,13.0,45,0.01,,,0.01,,2013-07-11 23:33:00,
2013-07-11 17:44:00,73.0,48.0,-100.00,ESE,106,2.0,4.0,40,0.00,,,0.01,,2013-07-11 23:44:00,
2013-07-11 17:56:00,73.0,48.0,-100.00,ESE,106,2.0,4.0,40,0.00,,,0.01,,2013-07-11 23:56:00,
2013-07-11 18:12:00,74.0,49.0,-100.00,WSW,254,1.0,2.0,40,0.00,,,0.01,,2013-07-12 00:12:00,
2013-07-11 18:23:00,74.0,49.0,-100.00,WSW,254,1.0,2.0,40,0.00,,,0.01,,2013-07-12 00:23:00,
2013-07-11 18:34:00,72.0,50.0,-100.00,West,280,2.0,5.0,45,0.00,,,0.01,,2013-07-12 00:34:00,
2013-07-11 18:46:00,72.0,51.0,-100.00,ENE,58,2.0,4.0,47,0.00,,,0.02,,2013-07-12 00:46:00,
2013-07-11 18:56:00,72.0,51.0,-100.00,ENE,58,2.0,4.0,47,0.00,,,0.02,,2013-07-12 00:56:00,
2013-07-11 19:02:00,72.0,51.0,-100.00,ENE,58,2.0,4.0,47,0.00,,,0.02,,2013-07-12 01:02:00,
2013-07-11 19:12:00,72.0,51.0,-100.00,ENE,58,2.0,4.0,47,0.00,,,0.02,,2013-07-12 01:12:00,
2013-07-11 20:13:00,69.0,51.0,-100.00,SE,140,6.0,10.0,52,0.00,,,0.07,,2013-07-12 02:13:00,
2013-07-11 20:24:00,69.0,51.0,-100.00,SE,140,6.0,10.0,52,0.00,,,0.07,,2013-07-12 02:24:00,
2013-07-11 20:43:00,71.0,49.0,-100.00,NNW,342,3.0,4.0,46,0.00,,,0.07,,2013-07-12 02:43:00,
2013-07-11 21:02:00,72.0,54.0,-100.00,North,3,1.0,2.0,54,0.00,,,0.07,,2013-07-12 03:02:00,
2013-07-11 21:13:00,70.0,58.0,-100.00,WNW,291,1.0,2.0,66,0.00,,,0.07,,2013-07-12 03:13:00,
2013-07-11 21:23:00,70.0,58.0,-100.00,WNW,291,1.0,2.0,66,0.00,,,0.07,,2013-07-12 03:23:00,
2013-07-11 21:33:00,70.0,53.0,-100.00,WSW,239,1.0,2.0,55,0.00,,,0.07,,2013-07-12 03:33:00,
2013-07-11 21:43:00,68.0,56.0,-100.00,SSE,158,3.0,4.0,64,0.00,,,0.07,,2013-07-12 03:43:00,
2013-07-11 21:54:00,68.0,56.0,-100.00,SSE,158,3.0,4.0,64,0.00,,,0.07,,2013-07-12 03:54:00,
2013-07-11 22:01:00,67.0,56.0,-100.00,NNW,329,2.0,4.0,68,0.00,,,0.07,,2013-07-12 04:01:00,
2013-07-11 22:11:00,66.0,54.0,-100.00,SSW,193,0.0,1.0,67,0.00,,,0.07,,2013-07-12 04:11:00,
2013-07-11 22:21:00,66.0,54.0,-100.00,SSW,193,0.0,1.0,67,0.00,,,0.07,,2013-07-12 04:21:00,
2013-07-11 22:32:00,66.0,54.0,-100.00,SSW,193,0.0,1.0,67,0.00,,,0.07,,2013-07-12 04:32:00,
2013-07-11 22:43:00,66.0,54.0,-100.00,SSW,193,0.0,1.0,67,0.00,,,0.07,,2013-07-12 04:43:00,
2013-07-11 23:02:00,64.0,54.0,-100.00,NW,315,2.0,3.0,70,0.00,,,0.07,,2013-07-12 05:02:00,
2013-07-11 23:11:00,64.0,53.0,-100.00,North,356,4.0,7.0,66,0.00,,,0.07,,2013-07-12 05:11:00,
2013-07-11 23:22:00,64.0,53.0,-100.00,North,356,4.0,7.0,66,0.00,,,0.07,,2013-07-12 05:22:00,
2013-07-11 23:32:00,65.0,51.0,-100.00,North,3,4.0,8.0,60,0.00,,,0.07,,2013-07-12 05:32:00,
2013-07-11 23:42:00,63.0,51.0,-100.00,North,354,3.0,6.0,64,0.00,,,0.07,,2013-07-12 05:42:00,
2013-07-11 23:53:00,63.0,51.0,-100.00,North,354,3.0,6.0,64,0.00,,,0.07,,2013-07-12 05:53:00,